Tracking 18840 objects as of 18-November-2017
HD Live streaming from Space Station
objects crossing your sky now

COSMOS 1535

Track COSMOS 1535 now!
10-day predictions
COSMOS 1535 is classified as:


NORAD ID: 14679
Int'l Code: 1984-010A
Perigee: 956.5 km
Apogee: 1,020.6 km
Inclination: 83.0 °
Period: 104.7 minutes
Semi major axis: 7359 km
RCS: 2.2768 m2 (large)
Launch date: February 2, 1984
Source: Commonwealth of Independent States (former USSR) (CIS)
Launch site: PLESETSK MISSILE AND SPACE COMPLEX (PKMTR)
aabbcc
Your satellite tracking list
Your tracking list is empty




NASA's NSSDC Master Catalog

Two Line Element Set (TLE):
1 14679U 84010A   17321.92885809 +.00000032 +00000-0 +16514-4 0  9999
2 14679 082.9556 311.6562 0043530 082.3129 338.7534 13.75074572664233
Source of the keplerian elements: AFSPC